Temp
62 62 62 62 62 62 61 61 61 61 61 62 62 61 61 61 61 61 61 61 62 62 62 63 63 63 59 55 54 68 72 70 68 66 62 59 55 52 48 50 54 48 52 56 57 56 55
62 61 61 61 61 61 61 61 60 60 61 61 61 61 60 60 61 61 61 61 62 62 62 63 63 62 56 49 65 69 67 66 65 63 60 59 55 55 51 50 49 52 53 53 55 54 55
61 61 61 61 61 60 60 60 60 60 60 61 61 60 60 60 60 60 61 61 61 61 62 63 63 62 56 53 64 65 67 63 64 62 58 59 58 54 52 49 55 53 48 50 50 52 52
61 60 60 60 60 60 60 60 59 60 60 60 60 60 59 59 60 60 60 60 61 61 62 63 64 57 50 64 63 66 67 63 66 65 61 60 59 54 52 53 52 47 45 40 50 51 51
60 60 60 60 60 60 60 59 59 59 60 60 59 59 59 59 59 59 59 60 61 62 63 63 57 54 49 66 61 65 64 60 62 62 61 67 58 51 52 43 39 41 35 37 46 51 50
60 59 59 59 59 59 59 59 59 59 59 59 59 58 58 59 59 59 60 61 61 60 62 63 63 51 56 55 59 62 62 62 57 57 55 54 49 43 42 40 33 35 35 39 40 47 47
59 59 59 59 59 59 59 59 59 59 59 58 58 58 58 58 59 59 56 54 53 52 55 49 50 52 55 60 61 59 61 59 56 52 44 48 42 38 43 45 45 40 39 39 42 48 45
59 58 58 58 58 58 58 58 58 58 58 58 57 57 58 58 59 59 53 48 46 47 45 55 55 55 58 58 52 57 61 50 49 43 46 43 38 45 49 47 44 41 37 37 43 46 44
59 58 58 58 58 58 58 58 58 58 58 57 57 57 57 58 58 54 49 48 54 52 45 50 54 54 54 57 50 51 56 50 46 43 42 38 44 50 47 43 41 37 37 36 38 42 42
58 58 57 57 57 57 57 57 57 57 57 57 57 57 57 57 55 51 47 53 54 52 37 44 49 52 56 54 47 57 56 50 47 41 42 40 47 46 42 41 41 34 42 41 40 35 29
58 58 57 56 56 56 56 57 57 57 57 56 56 56 57 58 49 48 51 53 52 49 24 46 48 59 54 49 49 50 56 51 42 42 42 41 41 40 40 42 43 40 43 40 39 34 27
58 58 57 56 56 56 56 56 56 56 56 56 56 56 56 53 49 49 52 50 49 36 24 41 48 46 46 47 48 50 49 51 48 42 41 41 47 43 43 45 44 46 39 37 32 30 21
58 58 56 55 55 55 56 56 56 56 56 56 55 55 53 55 48 51 50 47 35 26 43 40 41 45 43 42 44 45 40 35 34 30 30 37 38 43 45 39 42 40 33 23 21 20 22
58 57 56 55 55 55 55 55 56 56 56 55 55 55 53 55 50 50 46 43 30 39 38 44 43 42 38 41 40 40 36 31 34 32 27 26 27 38 44 38 34 33 33 24 20 18 22
58 57 56 55 55 55 55 55 55 55 55 55 54 47 47 50 52 48 43 30 33 36 42 40 41 34 35 39 38 36 30 30 30 31 28 26 29 40 42 41 40 33 28 32 26 22 17
58 57 56 55 55 54 54 55 55 55 55 54 43 45 46 51 49 45 39 37 36 41 41 40 35 36 31 34 33 34 30 32 33 34 32 28 25 34 40 41 38 34 35 25 24 15 14
58 57 56 55 54 54 54 54 55 55 54 54 43 43 48 50 47 41 33 34 38 43 42 38 35 33 34 33 33 31 30 31 35 33 32 29 27 29 33 29 27 29 26 26 25 22 15
57 57 56 55 54 53 53 54 54 54 54 48 40 38 47 47 39 31 32 37 44 39 41 39 37 36 34 34 31 31 30 30 35 34 29 29 25 19 24 30 31 29 23 23 16 15 16
56 55 55 54 53 53 53 54 54 54 53 41 39 38 46 46 34 31 33 36 36 37 35 36 34 36 36 33 29 29 29 35 37 34 30 31 23 16 21 24 27 24 26 26 22 18 12
55 55 54 53 53 53 53 53 53 53 53 42 39 35 38 38 34 33 32 33 32 36 36 37 35 37 35 32 36 30 28 33 35 35 40 36 23 22 17 20 24 21 24 25 21 5 12
55 54 53 52 53 53 53 53 52 52 53 42 36 35 35 33 34 32 34 35 32 31 36 37 33 35 34 29 30 30 31 30 33 37 33 30 20 21 22 24 24 24 24 24 20 20 10
54 53 52 51 50 51 52 52 52 51 52 40 36 34 32 31 35 33 34 31 32 32 33 32 32 35 34 30 30 26 29 28 26 29 28 29 20 21 17 24 24 22 24 22 23 23 19
53 52 51 50 49 50 52 52 51 51 50 36 34 36 37 32 30 30 29 30 32 33 34 35 35 32 30 30 31 29 28 29 28 26 24 23 20 17 12 20 20 14 12 16 18 15 10
52 50 50 50 49 50 51 51 51 51 49 38 34 35 34 30 30 31 31 32 31 32 30 33 34 31 32 35 33 30 26 27 25 26 28 20 19 19 11 15 0 12 18 14 10 10 7
51 51 50 50 50 51 51 51 51 50 50 37 34 37 34 26 30 30 31 30 30 31 29 30 32 32 33 30 25 23 21 22 23 25 24 24 19 13 8 6 11 12 13 9 6 6 6
51 51 51 49 50 51 51 51 51 49 48 39 36 37 36 28 24 30 28 30 26 24 26 29 34 35 33 29 26 18 15 17 15 19 25 24 19 14 8 4 2 5 18 22 10 2 10
51 50 50 49 49 50 51 50 50 51 49 40 36 38 34 26 27 30 27 27 29 27 25 27 29 29 31 24 22 18 15 19 12 13 15 14 14 10 11 11 8 15 20 23 -1 1 14
51 50 49 50 50 51 51 50 50 50 49 41 37 39 34 27 28 31 32 27 28 28 24 27 26 26 24 20 20 14 11 15 14 15 13 13 10 5 6 4 2 18 18 11 8 13 15
50 50 50 50 50 50 50 50 51 50 49 44 34 40 40 30 29 35 34 35 34 33 29 24 25 24 24 16 15 14 16 15 10 4 15 8 10 9 12 9 13 15 14 15 16 13 14
MSLP
1022.89 1022.91 1022.82 1022.72 1022.66 1022.50 1022.23 1022.06 1021.89 1021.59 1021.16 1020.72 1020.30 1020.00 1019.73 1019.46 1019.16 1018.89 1018.67 1018.47 1018.25 1018.03 1017.83 1017.58 1017.30 1017.08 1016.99 1017.08 1017.25 1016.66 1016.40 1016.21 1015.92 1015.90 1016.02 1016.06 1016.16 1016.30 1016.35 1016.26 1016.08 1016.12 1016.03 1015.83 1015.58 1015.50 1015.34
1023.10 1023.11 1022.99 1022.84 1022.66 1022.46 1022.22 1021.94 1021.71 1021.50 1021.18 1020.75 1020.31 1019.96 1019.65 1019.36 1019.06 1018.79 1018.55 1018.31 1018.10 1017.96 1017.84 1017.65 1017.36 1017.15 1017.05 1017.22 1016.98 1016.68 1016.57 1016.39 1016.31 1016.22 1016.27 1016.38 1016.58 1016.54 1016.62 1016.57 1016.58 1016.58 1016.43 1016.13 1015.74 1015.57 1015.64
1023.13 1023.18 1023.18 1022.97 1022.74 1022.54 1022.26 1021.97 1021.65 1021.35 1021.00 1020.65 1020.36 1020.03 1019.67 1019.28 1018.92 1018.65 1018.39 1018.13 1017.94 1017.88 1017.80 1017.62 1017.43 1017.29 1017.16 1017.50 1017.12 1016.89 1016.64 1016.53 1016.44 1016.49 1016.62 1016.69 1016.76 1016.74 1016.84 1016.88 1016.77 1016.77 1016.84 1016.24 1015.80 1015.71 1015.82
1023.25 1023.19 1023.14 1023.02 1022.82 1022.60 1022.32 1022.05 1021.70 1021.36 1020.95 1020.57 1020.29 1019.97 1019.67 1019.36 1018.96 1018.51 1018.14 1017.85 1017.69 1017.65 1017.54 1017.43 1017.37 1017.39 1017.66 1017.27 1017.15 1016.97 1016.77 1016.66 1016.57 1016.54 1016.56 1016.64 1016.68 1016.85 1016.98 1017.13 1017.17 1017.37 1017.45 1017.17 1016.23 1016.14 1016.32
1023.25 1023.24 1023.15 1023.03 1022.91 1022.66 1022.34 1022.07 1021.69 1021.34 1021.05 1020.69 1020.29 1019.90 1019.58 1019.25 1018.89 1018.53 1018.07 1017.54 1017.26 1017.19 1017.16 1017.04 1017.15 1017.21 1017.71 1017.26 1017.33 1017.23 1017.08 1017.06 1016.90 1016.78 1016.74 1016.65 1016.80 1017.27 1017.35 1017.71 1018.09 1018.20 1018.11 1017.81 1016.97 1016.64 1016.86
1023.30 1023.24 1023.20 1023.08 1022.91 1022.75 1022.49 1022.24 1021.83 1021.39 1021.02 1020.67 1020.36 1020.04 1019.62 1019.15 1018.69 1018.32 1017.87 1017.60 1017.29 1017.06 1017.00 1017.10 1017.23 1017.59 1017.70 1017.64 1017.44 1017.40 1017.14 1017.07 1017.13 1017.08 1017.11 1017.08 1017.49 1017.85 1018.32 1018.47 1018.70 1018.56 1018.49 1017.97 1017.56 1017.16 1017.22
1023.31 1023.29 1023.15 1023.11 1023.01 1022.86 1022.59 1022.30 1022.01 1021.57 1021.17 1020.81 1020.41 1020.03 1019.61 1019.11 1018.58 1018.05 1017.61 1017.47 1018.20 1018.05 1017.71 1017.91 1017.95 1017.80 1017.67 1017.57 1017.44 1017.38 1017.29 1017.28 1017.27 1017.37 1017.46 1017.51 1018.02 1018.03 1017.94 1017.95 1017.91 1018.18 1018.24 1018.09 1017.51 1017.34 1017.84
1023.08 1023.13 1023.13 1023.04 1022.95 1022.86 1022.61 1022.31 1021.99 1021.62 1021.21 1020.85 1020.53 1020.12 1019.63 1019.11 1018.68 1018.21 1018.14 1019.08 1019.96 1020.28 1019.20 1018.34 1018.05 1017.96 1017.91 1017.82 1017.74 1017.71 1017.58 1017.85 1017.56 1017.75 1017.92 1018.32 1018.21 1017.79 1017.63 1017.69 1017.89 1018.13 1018.34 1018.21 1017.81 1017.84 1018.33
1022.86 1022.94 1022.91 1022.95 1022.89 1022.79 1022.59 1022.27 1021.92 1021.59 1021.25 1020.88 1020.55 1020.13 1019.64 1019.13 1018.64 1018.73 1019.37 1019.98 1019.90 1019.87 1019.50 1018.69 1018.15 1017.88 1017.85 1017.92 1018.23 1018.16 1018.11 1017.95 1018.11 1018.23 1018.63 1018.62 1017.93 1017.35 1017.40 1017.56 1017.66 1017.86 1018.17 1018.30 1018.56 1018.58 1018.66
1022.64 1022.77 1022.85 1022.78 1022.70 1022.63 1022.47 1022.22 1021.89 1021.56 1021.22 1020.90 1020.58 1020.08 1019.57 1019.06 1019.08 1019.59 1019.96 1019.88 1019.72 1019.85 1019.85 1018.96 1018.09 1017.71 1017.72 1017.83 1018.14 1018.02 1018.26 1018.56 1018.58 1018.85 1018.92 1018.81 1018.19 1017.94 1017.88 1017.88 1018.15 1018.35 1018.20 1018.55 1018.93 1019.49 1020.26
1022.42 1022.60 1022.72 1022.75 1022.69 1022.51 1022.34 1022.03 1021.78 1021.45 1021.14 1020.82 1020.58 1020.25 1019.79 1019.04 1019.76 1020.06 1020.47 1020.18 1019.90 1020.04 1020.12 1019.05 1018.12 1017.64 1017.69 1018.09 1018.32 1018.25 1018.19 1018.34 1019.08 1019.32 1019.59 1018.94 1018.61 1018.42 1018.43 1018.18 1018.33 1018.33 1018.51 1018.94 1019.33 1020.23 1021.08
1022.13 1022.23 1022.47 1022.63 1022.60 1022.51 1022.28 1022.03 1021.68 1021.40 1021.04 1020.65 1020.36 1020.15 1020.00 1019.85 1020.16 1020.49 1020.20 1020.09 1020.10 1020.37 1019.73 1018.89 1018.34 1018.21 1018.37 1018.41 1018.65 1018.88 1019.09 1019.39 1019.83 1020.09 1020.08 1019.91 1019.24 1019.01 1018.77 1018.71 1019.03 1019.02 1019.37 1019.73 1020.49 1021.40 1022.05
1021.77 1022.01 1022.15 1022.32 1022.33 1022.29 1022.20 1021.99 1021.72 1021.36 1021.01 1020.66 1020.31 1020.10 1019.92 1020.08 1020.43 1020.34 1020.49 1020.65 1021.01 1020.31 1019.69 1019.40 1018.88 1018.72 1018.94 1019.07 1019.23 1019.62 1020.74 1021.50 1021.97 1021.91 1022.00 1020.94 1020.06 1019.54 1019.34 1019.42 1019.44 1019.83 1020.88 1021.74 1022.29 1022.98 1022.87
1021.53 1021.74 1021.92 1022.14 1022.20 1022.07 1021.94 1021.80 1021.60 1021.26 1021.02 1020.69 1020.26 1019.96 1020.03 1020.00 1020.23 1020.29 1020.74 1021.07 1021.22 1020.15 1019.76 1019.45 1019.39 1019.28 1019.54 1019.74 1020.18 1020.83 1021.77 1022.82 1023.17 1023.26 1023.33 1022.76 1021.43 1020.65 1020.20 1020.19 1020.56 1021.00 1021.81 1023.03 1023.68 1024.24 1023.98
1021.01 1021.30 1021.61 1021.91 1022.11 1022.05 1021.89 1021.58 1021.35 1021.15 1020.83 1020.59 1020.16 1020.29 1020.21 1020.19 1020.11 1020.38 1020.97 1021.86 1020.81 1020.54 1020.28 1020.12 1020.00 1020.07 1020.15 1020.33 1020.86 1021.83 1022.98 1023.76 1024.26 1024.26 1024.39 1024.03 1022.80 1021.69 1021.18 1021.09 1021.29 1022.04 1022.77 1023.55 1024.48 1025.13 1025.60
1020.74 1021.00 1021.37 1021.53 1021.75 1021.88 1021.87 1021.63 1021.24 1020.93 1020.67 1020.57 1020.67 1020.58 1020.49 1020.19 1020.27 1020.81 1021.50 1021.62 1021.30 1021.04 1020.84 1020.59 1020.58 1020.45 1020.76 1021.03 1021.70 1022.38 1023.51 1024.29 1024.65 1024.80 1024.76 1024.68 1024.22 1023.10 1022.37 1022.00 1022.48 1022.73 1023.52 1024.52 1025.70 1026.40 1026.31
1020.13 1020.70 1021.15 1021.33 1021.56 1021.61 1021.71 1021.63 1021.25 1020.90 1020.68 1020.45 1020.97 1020.95 1020.74 1020.40 1020.52 1021.31 1022.20 1021.95 1021.71 1021.55 1021.35 1021.18 1020.99 1020.99 1021.18 1021.56 1022.16 1023.09 1024.08 1024.93 1025.01 1025.36 1025.41 1025.56 1025.53 1024.45 1023.70 1024.03 1024.30 1024.41 1024.87 1025.85 1026.70 1027.28 1027.64
1019.57 1020.41 1020.82 1021.06 1021.25 1021.38 1021.53 1021.53 1021.26 1020.85 1020.69 1020.62 1021.03 1021.64 1020.92 1020.70 1021.49 1022.38 1022.65 1022.48 1022.29 1022.39 1022.33 1021.99 1021.77 1021.74 1021.75 1022.07 1022.70 1023.62 1024.52 1025.32 1025.56 1025.89 1026.22 1026.62 1026.89 1026.66 1025.87 1025.78 1025.53 1025.72 1026.55 1027.34 1028.31 1028.78 1029.35
1019.11 1020.00 1020.44 1020.83 1021.03 1021.05 1021.24 1021.29 1021.13 1020.80 1020.59 1020.99 1021.42 1021.47 1021.15 1020.75 1021.82 1022.65 1023.00 1023.02 1023.13 1023.11 1023.27 1023.02 1022.83 1022.70 1022.78 1022.86 1023.61 1024.25 1025.18 1025.89 1025.96 1026.28 1026.64 1027.09 1027.56 1027.74 1027.30 1027.10 1026.79 1027.32 1027.72 1028.28 1029.12 1029.92 1030.29
1018.29 1019.26 1020.19 1020.62 1020.94 1020.94 1021.07 1020.99 1020.90 1020.70 1020.42 1020.88 1021.69 1021.86 1021.87 1022.06 1022.14 1022.36 1023.03 1023.20 1023.45 1023.51 1023.75 1023.78 1023.76 1023.68 1023.67 1023.85 1024.17 1024.96 1025.83 1026.48 1026.42 1026.60 1026.80 1027.34 1028.15 1028.31 1028.22 1028.16 1028.27 1028.49 1028.71 1029.19 1029.93 1030.85 1030.93
1017.97 1018.75 1019.59 1020.17 1020.64 1020.74 1020.77 1020.81 1020.69 1020.42 1020.40 1020.98 1021.90 1021.97 1021.86 1022.47 1022.45 1022.57 1022.70 1023.07 1023.75 1023.86 1024.02 1024.22 1024.37 1024.34 1024.49 1024.79 1024.96 1025.33 1026.13 1026.88 1027.26 1027.13 1027.30 1027.74 1028.52 1028.72 1028.77 1028.85 1028.87 1028.87 1029.21 1029.66 1030.36 1030.88 1031.96
1017.49 1018.46 1019.18 1019.50 1020.28 1020.40 1020.45 1020.64 1020.27 1020.34 1020.28 1021.09 1021.80 1022.44 1022.59 1022.75 1022.52 1022.79 1022.91 1023.44 1023.65 1024.19 1024.27 1024.57 1024.65 1024.83 1025.20 1025.57 1026.00 1026.30 1026.60 1027.15 1027.29 1027.90 1028.24 1028.43 1028.82 1029.26 1029.48 1029.23 1029.41 1029.65 1029.86 1030.15 1031.01 1031.58 1032.36
1017.28 1018.07 1019.08 1019.20 1019.61 1019.95 1020.01 1020.18 1020.08 1020.12 1020.20 1020.80 1021.62 1021.77 1021.68 1022.99 1023.24 1023.52 1023.54 1023.58 1024.03 1024.39 1025.21 1025.09 1025.00 1025.55 1026.15 1026.71 1027.05 1027.16 1027.54 1027.57 1027.83 1028.16 1028.94 1029.39 1029.68 1030.18 1030.14 1030.10 1030.42 1030.79 1031.17 1031.76 1032.49 1033.57 1034.57
1016.88 1017.84 1018.52 1019.19 1019.34 1019.73 1019.61 1019.48 1019.70 1019.77 1019.82 1020.27 1021.03 1021.59 1022.25 1023.30 1023.68 1023.94 1024.11 1024.25 1024.71 1025.03 1025.51 1025.84 1025.62 1026.12 1027.24 1027.24 1027.55 1027.70 1027.80 1028.19 1028.45 1028.63 1028.98 1029.63 1030.18 1030.77 1031.08 1031.38 1031.81 1032.11 1032.42 1033.06 1034.08 1035.18 1035.79
1016.59 1017.33 1018.22 1018.74 1019.19 1019.52 1019.42 1019.25 1019.42 1019.18 1019.40 1020.25 1020.93 1021.15 1021.85 1023.62 1024.35 1024.80 1024.93 1025.19 1025.52 1026.02 1026.54 1026.97 1026.85 1026.95 1027.11 1027.44 1027.99 1028.21 1028.41 1028.56 1028.54 1028.78 1029.35 1029.73 1030.45 1031.36 1032.00 1032.49 1032.49 1032.97 1033.44 1034.25 1035.10 1036.18 1036.60
1016.01 1016.80 1017.75 1018.39 1018.85 1019.41 1019.49 1019.25 1019.44 1019.29 1019.50 1019.97 1021.10 1020.99 1021.45 1023.42 1025.55 1025.44 1025.62 1025.94 1026.48 1026.97 1027.34 1027.46 1027.48 1027.37 1027.59 1028.23 1028.89 1029.22 1029.15 1029.00 1029.57 1029.42 1029.54 1030.36 1030.69 1031.78 1032.87 1033.37 1033.47 1033.54 1034.02 1034.49 1035.52 1036.77 1036.86
1015.75 1016.75 1017.59 1018.40 1018.69 1018.94 1019.56 1019.44 1019.44 1019.46 1019.78 1019.91 1021.28 1021.20 1021.72 1024.28 1026.40 1025.97 1026.20 1026.68 1026.83 1027.23 1027.56 1027.88 1028.06 1028.01 1028.16 1029.11 1029.89 1030.22 1030.17 1029.96 1030.30 1030.52 1030.86 1031.39 1031.87 1032.51 1033.03 1033.51 1033.72 1034.12 1034.50 1034.84 1036.48 1037.52 1036.98
1015.96 1016.61 1017.67 1018.26 1018.04 1018.77 1019.45 1019.52 1019.70 1019.63 1019.68 1019.65 1021.60 1021.51 1022.03 1025.10 1026.77 1026.74 1026.62 1027.31 1027.34 1027.17 1027.59 1028.16 1028.55 1028.83 1029.43 1030.44 1030.94 1031.26 1031.31 1031.16 1031.38 1031.65 1032.01 1032.38 1032.84 1033.35 1034.02 1034.52 1034.95 1034.73 1035.12 1036.11 1037.02 1036.80 1036.94
1015.81 1016.72 1017.55 1018.14 1018.35 1018.67 1019.17 1019.44 1019.57 1019.83 1019.89 1020.01 1021.60 1021.91 1022.15 1024.52 1027.67 1027.31 1027.31 1028.11 1028.07 1027.56 1027.43 1028.26 1029.17 1029.40 1030.11 1031.10 1031.89 1032.07 1032.25 1032.22 1032.75 1033.45 1033.20 1033.87 1033.87 1034.06 1034.79 1035.13 1035.48 1035.76 1036.28 1036.78 1037.00 1037.14 1036.98
Wind_Speed
7 7 8 9 9 11 12 13 14 14 15 14 15 15 15 16 15 15 14 14 14 12 11 9 7 6 2 4 1 3 7 8 4 5 4 3 4 3 0 3 2 1 3 5 4 3 3
7 7 8 8 9 11 11 12 13 14 15 15 16 15 15 15 15 15 15 14 13 11 10 9 7 6 0 2 3 5 5 4 5 4 4 5 2 1 2 2 0 3 4 7 7 4 2
6 7 8 9 10 11 11 12 13 13 14 15 16 16 15 15 15 15 14 14 12 9 8 8 7 3 6 2 3 6 4 1 2 2 2 2 2 2 2 3 4 3 6 7 2 3 3
5 6 6 8 9 10 11 12 13 14 14 14 15 16 16 16 16 14 13 11 9 6 6 5 6 2 3 3 3 3 5 1 2 2 2 1 2 1 1 2 5 5 4 5 4 5 1
4 5 6 7 9 10 11 12 13 14 15 15 16 15 15 16 16 16 14 11 5 4 4 4 1 2 1 3 2 4 3 2 4 2 2 1 2 2 4 4 5 6 3 2 7 2 3
2 4 5 7 9 11 12 13 13 13 14 15 16 16 16 17 16 15 15 7 4 5 1 1 1 4 1 1 2 3 3 2 1 3 3 3 5 3 4 4 3 2 2 3 4 2 2
2 3 6 8 10 11 12 13 13 14 15 15 15 16 16 16 16 15 7 3 6 5 9 3 2 2 1 2 1 3 2 4 1 2 2 1 4 3 6 6 5 3 4 6 5 4 4
3 1 4 7 9 11 12 13 14 14 15 15 16 16 16 16 16 14 3 6 3 2 2 2 1 2 1 1 2 6 5 2 1 1 2 5 1 3 3 1 1 2 3 6 7 2 4
5 2 1 5 8 10 11 12 13 14 15 15 16 16 16 16 12 5 5 3 2 1 4 2 1 1 1 2 2 5 4 1 2 2 3 3 3 2 1 1 1 3 4 3 4 7 1
6 3 1 3 6 8 10 12 13 14 14 15 15 15 16 18 6 1 3 3 1 1 5 2 1 0 1 1 1 1 2 1 3 1 3 4 3 0 2 1 2 3 2 1 2 4 3
7 5 2 2 5 7 8 10 12 13 14 15 15 16 16 7 1 3 1 4 1 3 5 1 2 1 1 2 2 1 1 2 2 1 4 6 2 1 2 3 2 7 2 2 2 4 2
10 7 4 2 5 7 9 10 11 12 13 13 13 13 13 5 3 0 2 2 3 9 6 1 1 1 1 0 0 2 5 8 2 1 1 5 5 1 3 1 3 4 3 3 4 4 2
11 9 6 3 3 7 9 11 12 13 13 13 12 11 5 0 1 2 2 3 7 6 0 2 2 1 1 1 0 3 5 7 3 5 5 6 1 2 1 3 3 6 5 5 6 3 6
13 10 7 4 4 6 7 9 11 12 14 14 12 7 3 2 0 2 3 6 2 3 3 0 1 0 3 3 1 3 4 2 4 3 2 2 5 3 4 1 0 1 4 5 6 4 5
15 12 9 5 4 6 8 9 10 12 13 13 10 2 2 1 1 3 6 4 7 4 1 1 2 1 2 1 2 5 2 3 1 3 3 2 5 4 2 2 2 1 2 2 1 3 3
15 13 10 7 5 5 9 10 10 11 11 10 2 2 2 1 3 4 5 5 3 1 1 1 5 3 3 3 2 4 6 1 3 1 1 2 5 1 5 2 5 1 1 2 1 4 7
17 15 12 8 5 4 8 10 10 12 10 4 3 3 2 2 4 6 4 6 2 1 1 3 4 2 2 4 3 3 2 2 2 1 2 1 2 5 2 5 1 4 1 3 1 4 4
19 15 12 9 5 3 7 9 11 11 9 3 3 2 2 2 4 2 3 1 1 1 5 0 2 1 4 4 2 4 5 1 1 1 3 1 3 4 6 4 3 3 3 2 4 3 1
20 17 13 10 6 3 5 7 10 9 4 2 3 2 3 4 3 2 1 2 3 1 2 1 1 1 1 3 3 3 3 1 3 3 4 1 1 4 2 3 2 5 2 3 1 2 6
24 20 14 10 7 4 5 5 8 8 2 3 3 1 4 4 1 7 5 4 3 2 1 1 1 1 1 3 2 4 3 3 2 3 5 2 2 6 6 1 1 4 3 4 5 2 5
24 21 17 11 7 3 3 5 7 6 4 3 2 4 3 3 3 4 4 6 4 4 1 1 1 3 3 4 3 5 4 3 1 3 3 4 4 2 3 6 5 6 6 7 7 9 7
25 22 18 15 7 2 3 5 5 3 8 3 5 4 3 1 1 5 2 6 8 3 5 3 3 3 2 3 2 3 5 4 5 2 4 2 1 1 3 8 6 8 8 6 7 7 3
26 23 20 16 12 7 5 5 4 5 6 3 1 2 5 2 2 4 3 3 4 8 1 4 2 4 2 2 2 2 2 3 5 7 5 5 3 1 4 2 5 7 2 2 0 3 1
27 24 21 17 12 8 5 4 2 6 8 3 3 4 4 2 3 2 3 3 5 2 5 2 5 4 2 2 1 1 1 2 2 4 4 5 5 3 4 2 2 2 2 3 3 1 3
28 25 21 17 12 9 5 2 4 3 11 4 2 4 4 4 3 4 5 5 6 5 4 3 3 2 1 2 2 1 2 3 2 5 7 5 4 1 2 3 3 1 3 2 4 4 2
29 26 22 17 14 8 7 4 4 6 10 5 2 1 4 8 0 1 5 3 4 3 2 2 2 1 4 2 1 3 4 4 3 1 1 4 3 4 2 2 5 5 1 4 4 5 3
28 25 21 17 14 10 4 4 3 7 7 5 3 2 5 6 4 3 3 4 4 3 4 2 1 2 3 2 3 3 3 2 3 4 4 2 1 6 6 6 3 1 5 1 6 7 3
26 25 21 18 15 12 8 6 6 9 7 5 2 3 5 5 6 6 5 3 2 2 4 3 3 2 3 1 1 2 2 2 1 1 1 5 4 3 2 1 6 2 1 2 3 3 5
27 25 22 19 16 13 8 7 8 9 10 5 5 3 6 8 4 2 7 4 5 1 5 3 3 2 3 4 1 1 0 1 1 3 3 1 3 3 1 2 1 4 7 1 2 3 4
Wind_Direction
53 47 35 32 23 17 16 12 8 4 2 1 1 358 356 353 350 347 345 340 335 334 335 331 333 341 355 57 61 307 330 334 342 355 19 25 51 3 349 334 347 164 307 322 338 280 242
42 40 34 28 21 17 14 13 10 4 359 358 359 357 355 352 347 344 341 338 333 330 329 325 333 333 76 109 298 314 338 350 9 33 19 41 69 358 325 304 46 320 297 279 279 252 224
60 45 28 19 18 13 11 10 8 4 1 360 356 353 351 348 344 339 336 337 337 328 325 330 338 336 57 131 326 328 324 309 349 37 61 36 19 72 349 343 336 328 320 323 263 211 193
60 52 34 17 13 8 8 6 4 2 360 358 355 352 348 342 338 332 330 335 335 320 319 330 338 7 69 307 297 338 346 295 10 28 106 264 44 106 119 315 8 358 45 357 310 125 1
54 37 25 13 6 4 4 3 2 1 357 355 352 349 343 339 335 329 322 313 302 300 285 300 39 101 79 320 13 322 9 7 314 319 338 336 54 85 23 81 16 7 252 239 313 130 105
59 33 14 8 4 2 359 358 358 358 356 354 350 345 342 337 333 329 323 302 294 326 222 222 285 53 351 352 330 337 305 337 355 322 20 51 50 75 36 69 226 239 305 278 259 280 136
91 9 9 4 358 358 358 356 354 354 355 351 348 343 339 338 335 332 347 31 21 1 39 103 260 137 60 325 37 3 351 345 354 38 146 5 85 190 208 199 207 225 214 250 242 237 188
145 68 3 359 359 355 354 354 352 352 352 350 346 342 339 337 337 334 52 71 60 267 48 1 58 54 20 40 15 349 14 26 23 117 105 22 254 223 214 133 257 228 244 261 286 14 151
175 181 28 358 356 353 351 351 350 350 350 349 345 341 338 336 328 35 76 75 327 19 98 2 350 85 280 23 49 322 13 316 40 48 16 181 220 192 167 232 252 236 216 251 240 331 306
187 196 303 353 355 351 350 347 346 346 347 346 344 339 337 331 61 308 44 302 359 150 75 283 176 312 73 113 17 249 8 62 12 30 324 246 306 309 9 256 146 279 151 170 273 45 218
196 201 231 330 340 342 342 344 343 343 345 347 345 340 340 20 179 54 306 321 353 58 26 235 231 217 139 162 143 327 15 58 118 263 86 253 175 15 311 243 156 238 351 290 226 222 94
202 200 207 283 326 331 336 337 339 339 341 344 344 344 342 20 49 306 304 6 53 45 265 204 85 236 1 150 237 45 30 31 54 331 336 254 309 281 230 281 278 310 335 329 42 103 293
201 205 204 234 310 325 331 333 335 337 338 339 339 341 347 74 216 316 19 42 37 128 166 188 188 96 353 184 151 69 33 16 39 42 354 334 339 320 355 319 22 63 46 330 334 359 235
204 204 203 224 285 308 320 327 332 337 337 334 329 328 324 136 287 81 59 51 176 223 196 196 183 228 216 175 252 51 101 102 33 70 119 138 312 4 350 100 228 345 160 167 256 232 264
197 200 201 216 267 298 311 321 329 335 339 334 327 13 34 291 137 78 79 71 219 201 155 87 354 190 258 254 187 82 28 160 105 41 161 167 270 319 32 351 76 21 173 147 323 255 317
201 197 202 208 234 292 308 317 326 332 341 350 57 47 296 315 90 63 81 232 219 48 29 139 213 162 229 202 187 173 185 202 154 113 180 194 299 3 306 75 39 117 77 67 35 254 241
195 198 199 206 225 284 306 314 325 331 335 360 45 49 287 69 70 50 173 216 167 119 133 166 202 207 210 195 184 217 173 339 135 167 31 65 118 284 319 32 44 341 60 51 255 180 235
191 196 197 199 205 272 304 313 323 332 332 56 105 20 304 39 63 21 166 332 65 142 5 122 111 160 191 169 204 197 202 29 85 80 144 15 140 261 258 311 8 102 113 112 153 245 273
183 190 190 196 201 228 282 308 324 327 342 121 135 196 330 97 176 195 232 60 66 82 1 346 141 12 309 180 202 124 128 88 77 81 139 165 221 332 350 299 18 73 75 112 160 131 204
179 181 185 188 203 225 278 308 323 320 254 100 96 40 330 47 80 140 161 202 176 50 94 46 123 25 133 197 35 163 142 193 123 122 133 91 194 209 220 78 136 262 204 228 185 156 251
177 173 172 177 187 220 288 319 329 316 189 101 62 234 186 211 245 166 152 137 145 189 117 69 341 237 194 200 175 196 137 136 36 166 120 139 217 232 275 274 258 248 253 253 246 247 214
170 168 167 162 164 237 289 298 334 265 156 98 143 145 13 112 61 117 157 212 168 155 151 210 207 169 199 217 297 189 127 174 192 158 155 168 253 72 264 259 254 278 268 268 277 296 256
168 163 168 165 171 198 224 257 308 215 178 125 188 5 111 342 103 113 222 158 179 130 36 39 169 122 125 97 45 81 62 76 151 161 177 154 179 112 263 336 335 287 260 327 320 70 326
164 164 169 171 170 194 211 214 272 223 188 128 180 115 109 178 118 181 125 93 126 106 136 61 68 100 74 1 272 103 46 278 217 223 177 153 150 161 255 340 245 269 131 138 128 91 323
165 166 168 168 172 194 178 187 210 198 173 105 166 129 126 108 119 90 98 111 78 55 70 64 42 128 136 67 67 331 352 351 262 216 199 187 132 228 212 197 309 270 330 80 102 276 246
164 164 165 161 168 189 202 125 172 130 140 97 76 79 97 120 312 16 111 125 130 108 55 60 41 61 74 80 168 221 230 225 248 320 134 109 96 142 122 182 256 221 279 28 116 282 270
162 158 159 162 165 159 148 130 117 174 134 101 72 30 92 101 7 3 114 166 116 106 111 136 145 55 53 104 218 218 254 218 223 187 196 152 162 202 232 251 270 202 317 335 76 253 305
160 153 160 162 150 146 147 131 133 141 132 101 112 9 104 93 33 20 45 61 71 99 139 163 87 34 69 110 210 245 167 248 110 7 245 186 182 203 76 24 273 339 82 210 241 286 307
154 153 154 155 147 133 134 148 132 129 126 108 86 30 68 83 135 90 95 35 347 275 126 38 120 107 154 89 247 71 235 36 100 247 357 260 185 165 171 218 74 20 101 348 289 291 301